This is the latest recevied weather packets stored in our database for station/object IK2YOU-3. If no packets are shown the sender has not sent any weather packets the latest 1 day(s).
| Time | Temp. | Humidity | Pressure | Rain* | Wind** | Luminosity | Snow |
|---|---|---|---|---|---|---|---|
| 1836274625 | 18.89° C | 79% | 1022.4 hPa | 0 mm | 0 m/s | 0 W/m² | - |
| 1836274476 | 18.33° C | 79% | 1022.3 hPa | 0 mm | 0 m/s | 0 W/m² | - |
| 1836274008 | 18.89° C | 79% | 1022.4 hPa | 0 mm | 0 m/s | 0 W/m² | - |
| 1778036036 | 13.89° C | 72% | 1007.5 hPa | 0 mm | 0.89 m/s, 94° | 0 W/m² | - |
| 1778035564 | 13.89° C | 72% | 1007.7 hPa | 0 mm | 0.89 m/s, 82° | 0 W/m² | - |
| 1778034829 | 13.89° C | 72% | 1007.9 hPa | 0 mm | 1.34 m/s, 95° | 0 W/m² | - |
| 1778034229 | 13.89° C | 73% | 1008 hPa | 0 mm | 1.79 m/s, 62° | 0 W/m² | - |
| 1778033757 | 13.89° C | 73% | 1008.1 hPa | 0 mm | 0.89 m/s, 101° | 0 W/m² | - |
| 1778033030 | 13.89° C | 73% | 1008.2 hPa | 0 mm | 0.89 m/s, 80° | 0 W/m² | - |
| 1778032430 | 13.89° C | 73% | 1008.2 hPa | 0 mm | 0.89 m/s, 123° | 0 W/m² | - |
| 1778031830 | 13.89° C | 73% | 1008.4 hPa | 0 mm | 0.89 m/s, 87° | 0 W/m² | - |
| 1778031230 | 13.89° C | 73% | 1008.3 hPa | 0 mm | 0.45 m/s, 117° | 0 W/m² | - |
| 1778030630 | 13.89° C | 74% | 1008.3 hPa | 0 mm | 1.79 m/s, 140° | 0 W/m² | - |
| 1778030030 | 13.89° C | 74% | 1008.2 hPa | 0 mm | 1.79 m/s, 101° | 0 W/m² | - |
| 1778029439 | 13.89° C | 74% | 1008.2 hPa | - | 1.34 m/s, 119° | 0 W/m² | - |
| 1778028864 | 13.89° C | 74% | 1008 hPa | 0 mm | 0.89 m/s, 103° | 0 W/m² | - |
| 1778028264 | 13.89° C | 75% | 1008.1 hPa | 0 mm | 0.45 m/s, 91° | 0 W/m² | - |
| 1778027660 | 13.89° C | 74% | 1008.3 hPa | 0 mm | 0.45 m/s, 112° | 0 W/m² | - |
| 1778027187 | 13.89° C | 74% | 1008.5 hPa | 0 mm | 1.34 m/s, 92° | 0 W/m² | - |
| 1778026460 | 13.89° C | 74% | 1008.7 hPa | 0 mm | 0.89 m/s, 107° | 0 W/m² | - |
| 1778025860 | 14.44° C | 74% | 1008.8 hPa | 0 mm | 0.89 m/s, 105° | 0 W/m² | - |
| 1778025260 | 14.44° C | 73% | 1009 hPa | 0 mm | 0.89 m/s, 98° | 0 W/m² | - |
| 1778024659 | 13.89° C | 73% | 1009.1 hPa | 0 mm | 0.45 m/s, 97° | 0 W/m² | - |
| 1778024059 | 13.89° C | 74% | 1009.2 hPa | 0 mm | 0.45 m/s, 117° | 0 W/m² | - |
| 1778023461 | 13.89° C | 74% | 1009.3 hPa | 0 mm | 0.45 m/s, 95° | 0 W/m² | - |
* Rain latest hour (hover to see other rain measurements)
** Current wind speed in m/s (hover to see current wind gust speed)